Flag for Dominican Republic Weather past 2 weeks in Puerto Plata, Dominican Republic

Now
90 °F

Partly sunny.


Feels Like: 105 °F
Forecast: N/A
Wind: 17 mph from East

Location: Puerto Plata International

Current Time: Aug 27, 2015 at 5:42:16 PM

Latest Report: Aug 27, 2015 at 5:00 PM


Visibility: N/A

Pressure: 29.92 "Hg

Humidity: 71%

Dew point: 79 °F

Location of Puerto PlataLocation

Historic Weather in Puerto Plata — Graph

°F

Puerto Plata temperature yesterday

Maximum temperature yesterday: 93 °F (at 11:00 AM)
Minimum temperature yesterday: 81 °F (at 2:00 AM)
Average temperature yesterday: 87 °F

Past Weeks' High & Low Weather Summary

 TemperatureHumidityPressure
High93 °F (Aug 14, 1:00 PM)100% (Aug 13, 7:00 AM)30.04 "Hg (Aug 13, 7:00 AM)
Low75 °F (Aug 15, 7:00 AM)49% (Aug 21, 11:00 AM)29.83 "Hg (Aug 24, 4:00 PM)
Average86 °F71%29.95 "Hg
* Reported Aug 12 4:00 PM — Aug 27 4:00 PM, Puerto Plata, Weather by CustomWeather, © 2015

Note: Actual official high and low records may vary slightly from our data, if they occured in-between our weather recording intervals... More about our weather records

Advertising

Puerto Plata weather history for previous 24 hours

 ConditionsComfort  
Time TempWeatherWind HumidityBarometerVisibility
4:00 PM
Thu, Aug 27
91 °FPartly sunny.17 mph67%29.92 "HgN/A
3:00 PM91 °FPassing clouds.20 mph59%29.92 "HgN/A
2:00 PM93 °FPassing clouds.23 mph59%29.92 "HgN/A
1:00 PM91 °FPassing clouds.12 mph63%29.98 "HgN/A
12:00 PM91 °FPassing clouds.16 mph63%29.98 "HgN/A
11:00 AM91 °FPassing clouds.12 mph59%29.98 "HgN/A
10:00 AM90 °FPartly sunny.12 mph67%29.98 "HgN/A
9:00 AM82 °FScattered clouds.12 mph84%29.98 "HgN/A
8:00 AM82 °FPartly sunny.No wind79%29.95 "HgN/A
7:03 AM79 °FScattered clouds.No wind89%29.92 "HgN/A
5:00 AM81 °FPassing clouds.No wind79%29.95 "HgN/A
11:00 PM
Wed, Aug 26
82 °FPassing clouds.9 mph84%29.98 "HgN/A
8:00 PM82 °FPassing clouds.12 mph84%29.95 "HgN/A
7:00 PM86 °FScattered clouds.16 mph75%29.92 "HgN/A
6:00 PM88 °FPassing clouds.17 mph75%29.92 "HgN/A
5:00 PM90 °FPassing clouds.23 mph71%29.89 "HgN/A
Weather by CustomWeather, © 2015

See weather overviewHow to use our weather pages